Wetbulb
58.62 58.40 58.05 57.92 57.49 57.26 57.32 57.30 57.53 58.03 58.14 58.26 58.43 58.97 59.89 60.18 59.97 57.56 50.06 57.31 59.50 70.30 72.55 65.24 66.92 64.94 65.28 62.22 65.05 65.16 54.13 51.02 53.27 55.91 56.83 62.55 60.61 65.63 67.86 64.50 65.85 66.44 65.55 66.64 69.15
58.01 57.90 57.86 57.25 57.21 57.28 57.43 57.15 57.50 58.13 57.96 58.05 57.78 59.25 59.80 60.20 56.01 52.61 61.36 68.32 70.37 74.49 59.50 56.95 56.77 63.08 60.44 61.99 62.83 59.48 53.29 54.35 59.21 60.61 59.45 61.48 60.94 63.26 63.68 63.54 63.16 64.19 67.20 68.30 68.63
57.49 57.13 57.05 57.08 57.17 57.15 57.13 57.18 56.76 57.47 57.91 57.33 58.12 59.35 59.76 59.40 51.11 51.72 70.54 70.56 71.76 71.87 58.68 57.71 56.21 57.34 56.51 59.96 60.79 60.65 54.98 59.57 62.10 61.98 63.05 62.13 62.26 64.42 62.47 60.07 63.01 62.75 65.25 66.78 67.03
57.16 56.79 56.53 56.88 56.82 56.99 56.84 56.87 56.52 56.48 57.21 57.10 58.57 59.55 59.89 55.38 45.77 57.12 74.02 72.05 72.90 68.03 57.50 55.92 56.03 54.50 54.44 54.55 59.39 56.41 60.37 62.30 64.20 64.29 63.50 62.26 64.05 62.87 62.81 61.84 66.03 66.22 67.21 66.83 66.10
56.61 56.39 56.20 56.31 56.44 56.59 56.49 56.43 56.28 56.01 56.60 57.26 59.00 59.69 54.41 45.71 47.85 55.15 73.36 72.68 68.84 60.29 54.53 54.07 55.88 55.55 53.26 56.45 57.76 57.49 60.00 63.90 64.82 64.70 63.82 64.16 62.52 62.72 62.52 65.72 66.89 66.95 67.21 66.20 66.12
56.11 56.37 56.27 55.96 56.10 56.40 56.42 56.13 55.63 56.09 56.61 57.68 59.29 59.69 48.25 42.31 53.08 62.50 67.58 63.91 59.86 55.17 53.09 54.88 55.60 57.94 55.17 56.49 55.81 58.52 60.46 61.40 63.60 63.42 63.58 61.81 62.10 62.46 62.59 65.96 65.43 65.68 65.33 65.73 65.67
55.95 56.03 55.85 55.98 55.84 56.02 55.90 55.63 56.34 57.09 57.66 58.25 59.43 58.36 48.82 45.91 57.25 59.05 59.39 56.85 55.43 53.63 53.43 56.19 57.53 55.64 56.25 54.65 59.79 59.63 55.55 56.74 58.64 62.21 61.87 62.56 58.42 59.20 63.50 65.22 64.29 64.43 64.82 65.30 65.64
55.80 55.67 55.68 55.77 55.67 55.34 55.34 55.31 56.53 57.15 58.08 58.68 59.44 52.66 41.04 49.16 55.04 54.42 55.38 53.62 53.48 53.17 54.60 58.14 60.07 56.19 54.03 56.37 57.16 55.16 54.25 48.62 56.48 61.52 62.46 59.67 52.26 59.88 63.46 63.38 62.79 64.00 64.67 64.86 64.97
55.48 55.25 55.15 55.09 55.09 54.79 54.51 55.39 56.51 57.82 59.00 59.45 50.54 48.88 44.74 58.54 54.59 55.14 54.47 52.82 52.34 51.64 54.50 60.33 55.76 51.14 53.62 51.72 48.68 50.93 46.16 49.36 52.56 61.57 61.21 58.51 53.81 59.52 62.94 61.37 60.64 62.62 63.79 64.62 63.98
55.39 54.95 54.65 54.64 54.23 54.22 54.41 55.19 56.09 57.27 58.48 58.46 57.75 48.17 52.33 49.95 53.90 52.60 53.89 55.94 54.93 54.10 54.18 52.72 48.71 46.01 45.48 45.05 40.48 45.93 46.04 49.28 49.78 55.26 59.60 56.99 55.84 59.03 60.64 60.48 59.86 60.54 63.22 63.29 63.52
55.21 54.64 54.57 54.46 54.08 53.76 52.13 50.72 44.79 44.56 49.59 46.47 46.15 49.87 53.39 54.93 53.87 50.76 54.77 54.73 53.49 52.09 46.76 48.31 45.56 42.88 45.58 48.08 49.69 48.94 48.99 48.71 51.73 55.49 57.80 55.71 56.17 57.66 59.60 58.47 58.26 58.94 60.41 60.27 62.03
54.78 54.33 53.89 53.88 53.97 53.94 50.01 45.32 46.46 50.51 46.98 51.48 51.52 51.55 53.14 52.62 50.52 51.09 55.47 51.04 49.91 46.36 47.11 46.41 43.51 48.87 48.95 48.72 47.97 47.43 47.83 47.72 50.65 59.39 55.26 54.64 54.37 57.78 58.67 58.39 57.86 58.97 59.97 61.69 61.52
54.26 54.04 53.63 53.37 53.96 50.65 48.19 50.42 53.57 51.87 46.77 50.48 51.05 50.86 51.73 52.31 50.30 50.40 53.08 50.92 48.69 46.41 45.67 44.27 47.80 50.60 48.92 47.37 46.17 45.17 46.03 46.92 47.91 55.26 55.89 53.63 49.83 51.32 57.10 59.66 59.83 59.85 60.97 62.11 62.19
53.99 54.10 52.87 53.24 48.57 49.35 49.05 51.72 52.16 52.36 42.40 46.56 48.07 52.41 51.50 51.88 48.78 53.54 53.18 51.58 48.15 47.27 46.10 44.94 48.56 48.61 46.60 45.82 45.95 42.32 49.10 49.93 50.21 51.25 45.47 51.14 40.76 46.48 52.03 55.45 58.71 59.61 59.20 60.52 61.98
53.92 53.06 52.24 52.63 47.23 49.25 52.18 52.57 51.22 50.45 37.05 50.24 49.23 54.47 49.56 49.55 49.68 49.96 53.41 52.24 48.31 47.49 45.87 45.71 46.56 46.38 45.22 47.04 48.59 46.16 49.50 47.16 50.91 48.71 44.70 44.29 41.90 44.26 51.07 51.15 53.95 58.49 59.97 60.58 61.27
53.12 52.21 51.79 50.69 50.00 51.31 53.17 52.63 50.67 42.90 39.48 47.40 49.55 48.44 46.97 47.47 49.62 50.80 52.07 52.83 52.04 48.28 46.43 46.85 49.34 48.64 47.84 49.63 49.79 50.01 47.20 44.89 43.65 42.65 37.33 40.73 41.60 42.14 46.01 51.31 53.42 56.53 60.40 61.57 61.80
52.20 51.42 51.52 52.69 51.28 53.03 51.99 49.06 42.05 39.15 48.79 46.74 44.83 46.31 44.30 44.85 47.13 48.44 48.95 47.21 45.38 40.80 39.25 45.44 46.85 47.72 49.72 45.12 46.77 45.68 41.24 36.06 36.31 35.32 35.89 40.69 41.60 44.61 49.95 53.89 55.11 55.16 57.92 61.16 61.66
50.17 50.69 50.40 52.06 51.63 51.98 48.68 45.55 37.63 45.97 45.77 48.65 45.67 44.64 44.16 45.44 45.33 47.72 46.35 44.94 45.72 43.54 40.93 39.32 41.47 45.29 48.43 47.73 44.74 42.10 41.06 37.25 32.65 32.93 36.06 42.56 39.47 45.74 52.77 56.14 57.98 57.96 57.77 58.42 60.39
49.61 47.34 47.03 50.26 52.16 50.31 47.44 39.46 40.92 44.02 48.56 47.19 45.37 43.08 41.76 44.90 45.70 45.88 45.12 44.69 47.50 46.67 43.08 38.88 41.47 48.31 48.94 47.84 47.35 42.03 39.83 41.49 36.62 32.70 34.43 37.52 43.77 50.45 51.66 54.49 57.22 57.80 59.78 58.56 59.37
47.75 49.23 51.43 52.57 53.92 49.39 45.15 40.28 43.63 48.26 49.33 47.46 42.70 43.68 41.14 43.16 43.43 43.72 43.90 47.86 47.67 48.44 47.70 43.70 41.09 45.01 48.90 48.16 46.63 43.59 45.54 39.88 36.31 33.21 31.45 35.96 38.42 42.39 47.83 49.79 52.48 55.43 56.54 58.88 60.14
51.19 51.52 54.47 53.24 50.59 47.81 41.92 42.45 47.27 50.93 50.92 47.39 45.14 44.06 44.51 45.32 44.65 41.81 44.74 48.39 52.36 51.51 48.25 43.73 42.30 44.47 47.40 44.38 43.43 42.78 40.31 37.72 38.09 35.78 33.87 32.27 38.10 46.22 49.37 51.72 51.83 54.47 56.17 57.22 59.17
50.33 49.26 53.60 52.25 46.86 40.74 42.39 44.15 48.35 50.03 50.93 49.51 49.06 47.23 45.84 46.53 45.12 45.55 47.37 49.38 53.66 50.52 44.76 44.80 40.72 38.86 43.78 45.60 47.27 46.64 41.55 39.94 38.32 36.55 34.70 35.40 39.70 53.79 54.85 55.74 56.41 55.49 55.99 56.55 58.08
49.63 50.11 54.28 50.86 42.28 41.77 44.64 48.75 50.28 49.52 48.51 48.97 48.81 49.57 48.63 45.85 42.92 47.49 48.94 53.13 53.49 51.77 46.75 45.13 40.18 37.55 41.70 43.58 45.40 44.88 44.38 41.00 39.56 37.93 36.14 36.98 40.11 53.01 55.33 55.25 57.11 56.54 57.57 57.85 58.34
49.76 47.94 49.38 47.87 44.59 44.61 44.52 46.05 46.76 51.51 49.69 50.03 48.69 48.71 47.58 45.58 45.85 45.40 47.41 51.59 52.13 51.87 58.11 50.37 39.60 39.60 38.82 39.65 42.66 43.41 45.70 44.32 39.98 37.21 37.02 38.64 41.45 51.14 52.56 53.37 56.23 56.63 57.59 58.04 58.94
46.38 44.67 44.85 44.61 45.54 46.11 44.58 45.54 46.52 46.34 49.41 48.67 46.90 48.03 45.81 41.83 42.41 42.93 45.41 46.91 49.55 51.94 48.00 45.04 42.10 42.24 42.85 45.40 45.37 44.85 45.45 45.82 42.49 41.43 39.65 42.37 46.64 50.41 51.78 52.89 55.98 56.80 57.72 58.09 58.61
44.11 43.55 44.52 44.78 45.32 42.60 41.42 42.15 45.32 46.49 46.46 45.33 45.96 47.04 45.50 42.25 42.89 41.44 42.84 42.19 43.69 45.36 41.59 41.32 37.60 40.21 38.37 44.50 43.63 44.54 47.25 49.41 48.89 48.80 49.45 49.59 48.65 53.21 53.67 55.32 56.20 55.70 56.21 57.40 58.02
46.26 46.33 45.75 44.76 43.57 42.01 41.81 43.22 46.37 46.61 48.21 49.20 48.35 46.00 44.53 45.96 48.00 47.20 44.99 43.16 42.94 41.77 40.55 39.19 38.29 35.77 33.40 39.28 40.79 37.75 44.56 46.82 47.40 49.76 49.81 46.85 50.29 52.84 52.41 53.78 54.61 55.46 55.00 56.96 58.42
MSLP
1015.75 1015.58 1015.35 1015.18 1015.04 1014.89 1014.73 1014.68 1014.58 1014.41 1014.23 1014.07 1013.85 1013.59 1013.26 1012.92 1012.29 1012.14 1011.02 1008.64 1008.49 1008.56 1008.69 1009.10 1009.27 1009.30 1009.47 1009.72 1009.97 1010.29 1011.18 1011.35 1010.88 1010.56 1009.79 1009.51 1009.44 1008.94 1008.84 1009.37 1009.79 1010.27 1010.79 1011.22 1012.26
1015.73 1015.55 1015.32 1015.15 1014.97 1014.75 1014.57 1014.52 1014.41 1014.24 1014.10 1013.98 1013.80 1013.45 1013.14 1012.90 1012.44 1011.00 1008.06 1008.00 1008.15 1008.40 1008.74 1008.98 1009.14 1009.18 1009.51 1009.66 1009.91 1010.24 1010.86 1010.35 1009.63 1009.34 1009.09 1009.05 1009.03 1008.81 1009.01 1009.58 1010.22 1010.78 1011.12 1011.54 1012.46
1015.65 1015.52 1015.28 1015.04 1014.86 1014.66 1014.48 1014.35 1014.29 1014.12 1013.93 1013.85 1013.59 1013.29 1013.06 1012.92 1012.05 1008.81 1007.34 1007.73 1007.99 1008.30 1008.64 1008.76 1008.94 1009.15 1009.52 1009.63 1009.64 1009.78 1009.76 1009.20 1008.80 1008.62 1008.63 1008.85 1008.86 1008.66 1008.74 1009.30 1009.71 1010.35 1011.40 1011.95 1012.65
1015.55 1015.37 1015.19 1014.92 1014.72 1014.56 1014.35 1014.21 1014.16 1014.05 1013.81 1013.70 1013.47 1013.19 1012.94 1012.75 1010.74 1007.82 1007.44 1007.49 1007.94 1008.48 1008.82 1008.88 1009.04 1009.28 1009.52 1009.63 1009.28 1009.49 1008.70 1008.68 1008.36 1008.29 1008.52 1008.62 1008.34 1008.26 1008.70 1008.80 1009.09 1009.77 1010.76 1011.65 1012.67
1015.43 1015.19 1015.03 1014.79 1014.58 1014.42 1014.24 1014.07 1013.97 1013.95 1013.79 1013.61 1013.39 1013.14 1012.83 1011.95 1009.53 1007.59 1007.53 1007.57 1008.20 1008.69 1008.92 1009.01 1009.06 1009.26 1009.49 1009.36 1009.11 1008.98 1008.43 1007.95 1007.73 1007.85 1008.09 1008.28 1008.29 1008.52 1008.67 1008.77 1009.34 1010.22 1010.93 1011.48 1012.35
1015.27 1015.04 1014.85 1014.64 1014.44 1014.24 1014.06 1013.95 1013.92 1013.79 1013.66 1013.49 1013.27 1013.11 1012.64 1010.87 1008.03 1007.77 1007.88 1008.15 1008.30 1008.71 1008.96 1008.95 1008.85 1008.95 1009.23 1009.17 1009.16 1008.51 1008.32 1007.97 1007.72 1007.72 1007.89 1008.35 1008.51 1008.68 1008.72 1008.84 1009.60 1010.38 1010.92 1011.30 1011.73
1015.11 1014.85 1014.64 1014.46 1014.29 1014.10 1013.93 1013.84 1013.73 1013.59 1013.47 1013.33 1013.19 1013.01 1012.16 1009.13 1008.05 1008.09 1008.22 1008.32 1008.36 1008.46 1008.76 1008.80 1008.62 1008.83 1009.07 1009.12 1008.84 1008.62 1008.58 1008.09 1008.00 1007.99 1007.96 1008.26 1008.80 1008.69 1008.77 1009.20 1009.81 1010.37 1011.01 1011.62 1011.55
1014.95 1014.68 1014.44 1014.25 1014.10 1013.96 1013.86 1013.75 1013.58 1013.42 1013.29 1013.25 1013.17 1012.90 1011.08 1008.20 1008.14 1008.16 1008.08 1008.22 1008.34 1008.42 1008.57 1008.51 1008.56 1008.92 1009.30 1009.29 1009.09 1009.23 1009.21 1009.20 1008.19 1008.19 1008.09 1008.59 1008.41 1008.56 1008.81 1009.32 1009.92 1010.26 1010.62 1011.06 1011.38
1014.76 1014.47 1014.21 1013.99 1013.85 1013.75 1013.71 1013.61 1013.39 1013.22 1013.08 1013.13 1013.16 1012.53 1010.18 1008.05 1008.02 1007.44 1007.69 1008.05 1008.26 1008.43 1008.54 1008.52 1008.74 1009.33 1009.48 1009.96 1010.13 1010.31 1010.14 1009.79 1008.82 1008.34 1008.53 1008.91 1008.61 1008.78 1009.11 1009.42 1009.91 1010.15 1010.27 1010.39 1010.84
1014.52 1014.20 1013.95 1013.74 1013.59 1013.54 1013.50 1013.44 1013.27 1013.15 1013.14 1013.09 1012.60 1012.27 1009.44 1007.81 1007.25 1007.23 1007.60 1007.88 1008.12 1008.36 1008.76 1008.97 1009.62 1009.99 1010.58 1010.85 1011.30 1010.90 1010.51 1009.92 1009.23 1008.64 1008.68 1009.00 1008.60 1009.17 1009.21 1009.45 1009.67 1009.97 1009.98 1010.22 1010.31
1014.22 1013.90 1013.66 1013.46 1013.34 1013.34 1013.39 1013.42 1013.64 1013.28 1012.69 1011.18 1010.58 1009.85 1008.51 1007.48 1006.86 1007.08 1007.38 1007.90 1008.22 1008.59 1009.21 1009.64 1010.20 1010.32 1010.57 1010.74 1010.67 1010.70 1010.55 1010.01 1008.31 1008.56 1008.86 1008.78 1008.54 1008.92 1009.03 1009.34 1009.58 1009.88 1009.88 1009.98 1009.63
1013.93 1013.60 1013.37 1013.20 1013.11 1013.21 1013.39 1012.57 1011.12 1010.77 1010.78 1009.91 1009.80 1009.31 1008.39 1007.85 1007.44 1007.13 1007.16 1007.93 1008.61 1009.24 1009.59 1010.24 1010.15 1009.71 1009.95 1010.10 1010.31 1010.20 1010.05 1008.97 1008.19 1008.29 1008.77 1008.78 1008.26 1008.08 1008.25 1008.38 1008.81 1009.26 1009.51 1009.47 1009.37
1013.64 1013.33 1013.18 1013.06 1013.04 1013.46 1012.95 1011.34 1010.28 1010.31 1010.36 1009.24 1008.96 1008.54 1007.68 1007.66 1007.34 1007.01 1007.11 1007.76 1008.55 1009.38 1009.87 1010.32 1009.48 1009.15 1009.49 1009.44 1009.65 1009.44 1009.54 1008.90 1008.81 1008.67 1008.98 1009.22 1008.35 1008.02 1007.85 1007.90 1008.23 1008.57 1008.80 1009.08 1009.25
1013.35 1013.08 1013.02 1012.87 1013.51 1012.86 1011.90 1010.17 1010.12 1010.40 1010.04 1008.70 1008.12 1006.74 1007.02 1006.87 1006.86 1006.45 1006.78 1007.52 1008.47 1009.13 1009.84 1009.78 1008.89 1008.79 1008.75 1008.83 1008.85 1008.65 1008.23 1008.45 1008.67 1009.45 1010.03 1010.04 1009.97 1008.53 1008.13 1007.86 1007.91 1008.01 1008.31 1008.45 1008.84
1013.04 1012.82 1012.84 1012.84 1012.74 1012.30 1010.62 1009.98 1009.93 1010.08 1009.31 1007.55 1007.01 1005.96 1006.42 1006.61 1006.42 1006.62 1006.53 1007.11 1008.10 1008.87 1009.55 1008.98 1008.36 1008.31 1008.23 1007.70 1007.96 1007.91 1007.82 1008.52 1008.87 1009.87 1010.52 1010.58 1010.83 1008.32 1008.36 1007.98 1007.43 1007.28 1007.42 1007.75 1008.13
1012.66 1012.55 1012.71 1012.99 1012.84 1010.87 1010.25 1009.93 1009.76 1009.80 1008.07 1006.72 1006.16 1006.23 1006.48 1006.41 1006.35 1006.68 1006.79 1007.08 1007.76 1008.71 1009.04 1008.59 1007.91 1007.74 1007.03 1006.83 1007.23 1007.39 1008.01 1008.92 1009.90 1010.76 1011.32 1010.89 1010.99 1008.55 1007.80 1007.11 1006.75 1006.52 1006.72 1007.00 1007.57
1011.94 1011.86 1012.44 1011.87 1011.19 1010.28 1010.22 1010.11 1010.01 1008.72 1007.24 1006.51 1006.05 1006.10 1006.29 1006.52 1006.64 1006.74 1007.23 1007.75 1008.40 1009.12 1009.50 1008.41 1007.23 1006.54 1006.45 1007.00 1006.92 1007.45 1008.93 1010.16 1011.15 1011.78 1011.83 1010.96 1010.67 1007.86 1006.74 1006.12 1005.88 1005.77 1006.03 1006.37 1006.88
1011.47 1011.55 1011.66 1011.16 1010.66 1010.47 1010.32 1010.13 1009.52 1008.02 1006.94 1005.95 1005.82 1006.11 1006.46 1006.56 1006.76 1007.14 1007.60 1008.36 1008.72 1009.25 1009.68 1009.13 1007.27 1006.44 1006.12 1006.20 1006.54 1007.67 1008.53 1010.11 1011.40 1012.50 1012.14 1011.05 1009.82 1006.82 1005.73 1005.37 1005.48 1005.67 1005.76 1006.07 1006.45
1012.04 1011.87 1011.59 1009.80 1010.48 1010.70 1010.57 1010.50 1009.21 1007.84 1006.74 1006.03 1005.85 1006.24 1006.61 1006.56 1006.84 1007.27 1007.80 1008.18 1008.18 1008.44 1009.31 1008.92 1007.64 1006.18 1005.78 1005.76 1006.22 1007.38 1008.42 1009.36 1011.09 1012.50 1012.36 1011.17 1009.40 1006.66 1005.77 1006.15 1005.74 1005.62 1005.73 1005.87 1006.08
1011.73 1011.24 1010.28 1009.26 1009.82 1010.25 1010.45 1010.25 1008.84 1007.50 1006.46 1005.94 1006.02 1006.31 1006.83 1006.87 1007.27 1007.54 1007.91 1007.63 1007.66 1007.56 1007.57 1008.54 1008.18 1006.59 1005.75 1005.58 1006.30 1006.83 1007.88 1009.38 1010.99 1012.33 1012.60 1011.42 1010.17 1008.72 1007.64 1007.15 1006.71 1006.25 1005.74 1005.67 1005.88
1010.94 1010.71 1009.82 1009.38 1009.69 1010.20 1010.84 1009.96 1008.38 1006.78 1006.39 1005.97 1005.97 1006.28 1006.72 1007.13 1007.45 1007.79 1008.08 1007.75 1007.62 1007.52 1007.83 1008.52 1008.84 1007.17 1006.48 1006.32 1006.51 1007.33 1008.11 1009.76 1011.00 1011.91 1012.49 1012.07 1010.81 1009.67 1009.36 1008.69 1007.86 1007.18 1006.69 1006.49 1006.25
1010.83 1010.71 1009.96 1009.90 1010.30 1011.11 1010.64 1009.30 1007.99 1006.85 1006.17 1005.91 1006.05 1006.52 1007.04 1007.56 1008.01 1008.20 1008.22 1007.99 1007.83 1007.69 1008.35 1008.67 1009.18 1008.83 1007.60 1006.88 1007.04 1007.28 1008.31 1009.55 1011.01 1012.35 1012.62 1012.11 1010.61 1009.98 1009.69 1009.33 1008.70 1008.58 1007.63 1006.86 1006.35
1011.65 1011.19 1010.02 1009.75 1010.65 1011.13 1010.23 1009.13 1008.10 1007.30 1007.02 1006.66 1007.06 1007.32 1007.58 1008.46 1008.95 1008.73 1008.51 1008.26 1008.11 1008.23 1008.66 1008.86 1009.53 1009.62 1008.47 1008.03 1007.63 1007.96 1008.67 1009.52 1010.62 1011.51 1012.29 1012.41 1010.67 1009.86 1009.75 1009.89 1009.61 1009.02 1008.17 1007.44 1006.71
1012.16 1011.99 1011.14 1010.70 1011.08 1010.88 1010.51 1009.40 1008.43 1007.59 1007.59 1007.55 1007.91 1007.98 1008.42 1009.19 1009.47 1009.61 1009.37 1008.97 1009.07 1009.15 1009.24 1009.43 1010.45 1010.28 1009.65 1009.07 1008.93 1009.09 1009.36 1009.80 1010.79 1011.88 1012.33 1011.94 1011.31 1010.94 1011.00 1010.98 1010.56 1010.02 1009.37 1008.57 1007.82
1012.97 1013.92 1013.42 1012.38 1011.94 1011.34 1010.85 1009.96 1009.07 1008.51 1008.21 1008.26 1008.77 1008.97 1009.22 1009.89 1010.24 1010.36 1010.32 1010.09 1009.77 1009.90 1009.92 1010.35 1010.90 1010.69 1010.13 1009.68 1009.51 1009.83 1010.36 1010.59 1011.17 1011.71 1012.09 1011.91 1012.17 1012.52 1012.40 1012.16 1011.70 1011.30 1010.45 1009.51 1008.89
1014.82 1014.96 1013.94 1013.17 1012.44 1011.75 1011.19 1010.54 1009.81 1009.29 1008.95 1009.06 1009.37 1009.56 1009.60 1010.12 1010.43 1010.73 1010.86 1011.11 1010.71 1010.81 1011.00 1011.55 1011.79 1011.64 1011.26 1010.66 1010.66 1011.00 1011.30 1011.48 1012.00 1012.50 1012.65 1012.79 1012.89 1012.91 1012.73 1012.44 1012.07 1011.80 1011.32 1010.60 1009.87
1015.78 1015.50 1015.00 1013.90 1013.04 1012.28 1011.78 1010.90 1010.29 1009.89 1009.60 1009.47 1009.59 1009.91 1010.08 1010.18 1010.31 1010.53 1010.90 1011.11 1011.31 1011.68 1012.02 1012.41 1012.65 1013.13 1012.73 1012.03 1011.74 1012.32 1012.69 1012.78 1013.19 1013.41 1013.57 1013.59 1013.60 1013.37 1012.95 1012.81 1012.46 1011.99 1011.66 1011.26 1010.64
Wind_Speed
10 9 9 9 9 8 8 8 7 8 8 9 10 11 11 12 13 2 6 9 6 2 6 4 1 2 2 1 2 2 4 1 3 4 5 3 4 3 3 6 1 2 5 5 16
11 10 9 9 9 8 8 8 8 8 8 8 9 10 11 11 3 6 11 6 5 12 4 2 2 1 2 1 1 3 3 6 5 4 3 3 5 3 3 4 2 3 8 15 17
12 11 10 10 9 9 8 8 7 8 8 8 9 10 10 7 3 7 1 12 11 6 2 2 1 2 2 1 2 2 4 4 4 7 3 4 3 2 4 3 6 7 13 15 15
12 12 11 10 10 9 9 8 7 7 8 8 9 10 10 2 5 2 5 10 11 7 2 3 2 2 1 3 3 2 7 4 3 3 4 4 5 6 5 3 5 11 16 14 14
13 12 11 10 10 9 9 8 7 7 8 8 9 8 2 1 9 4 7 10 7 6 5 3 2 2 1 4 5 4 5 2 5 5 5 4 6 3 5 1 9 12 14 14 12
14 12 11 10 10 9 8 8 7 7 7 7 7 7 1 3 1 4 8 7 5 5 5 4 4 5 2 4 1 4 6 5 4 5 2 6 3 4 1 9 12 13 13 13 13
15 13 11 10 9 9 9 7 8 8 7 6 5 2 1 12 4 3 5 5 6 5 4 4 2 1 2 6 4 4 7 6 1 3 4 5 3 7 5 9 13 13 10 8 11
15 14 12 11 9 9 8 8 8 7 6 4 3 1 8 4 2 2 4 1 3 4 1 2 3 0 2 4 6 5 4 6 3 3 2 4 9 6 7 12 11 11 10 11 11
16 15 13 11 9 9 8 8 8 4 2 3 1 1 9 7 3 5 6 2 4 2 2 3 2 1 5 3 6 6 3 5 8 5 1 4 8 3 4 6 8 9 11 12 9
16 15 13 10 9 7 7 6 2 2 2 3 3 2 4 3 3 4 3 3 3 1 2 2 5 2 4 6 4 5 6 6 8 4 5 5 14 3 7 7 10 7 13 10 11
16 15 11 8 7 5 3 5 4 2 1 8 6 3 5 7 2 3 5 6 3 6 2 3 5 5 7 6 5 5 4 8 19 7 5 8 15 9 10 7 8 8 8 8 13
17 14 11 7 4 3 1 3 4 2 5 10 2 7 5 1 3 2 5 5 3 3 2 7 6 9 3 4 4 5 6 15 10 2 6 5 14 8 12 7 8 12 10 12 6
17 12 8 5 3 2 2 7 3 3 2 3 5 5 5 8 6 7 8 5 3 3 3 6 8 1 3 5 5 5 5 6 8 4 3 6 10 5 2 3 6 7 8 9 7
16 11 5 4 2 3 5 2 3 2 5 4 3 6 5 4 2 5 6 6 2 7 6 6 5 5 3 5 7 5 5 7 3 3 4 3 7 5 5 3 5 8 8 9 8
16 9 2 7 0 3 1 5 7 4 4 1 3 1 1 7 5 2 4 5 8 5 6 9 3 5 4 7 6 10 4 3 1 3 4 4 3 10 3 5 9 9 10 10 8
15 7 5 4 2 7 5 1 3 6 3 1 4 4 4 1 2 3 4 4 3 5 3 9 3 5 8 4 7 2 0 6 6 3 4 5 3 9 2 6 4 5 11 13 10
16 8 9 4 2 2 2 3 6 3 3 3 4 5 2 3 2 3 7 5 5 3 3 7 7 3 5 2 1 4 7 4 6 6 6 5 1 12 3 7 6 8 10 11 10
10 13 7 5 2 5 3 6 2 1 4 3 3 4 5 5 3 4 5 5 2 5 2 2 9 3 4 8 6 5 9 8 4 2 5 3 4 9 4 7 4 2 2 7 9
8 2 2 5 10 1 6 4 4 3 2 4 3 5 2 2 4 3 6 7 9 11 9 3 7 4 4 3 6 3 1 4 8 2 3 3 8 13 3 4 5 2 1 5 7
3 2 3 4 11 4 6 4 4 5 3 1 5 3 5 3 4 5 6 3 4 10 6 5 6 3 3 3 4 4 6 4 4 0 3 5 5 6 15 18 10 8 6 6 5
1 3 4 4 2 6 3 6 6 7 5 3 1 4 3 3 4 3 1 2 2 4 8 6 4 7 6 3 3 2 2 7 6 5 6 1 7 2 6 10 12 8 8 8 6
2 4 2 2 5 1 3 5 4 4 5 2 4 3 3 4 4 3 2 2 8 2 6 4 5 5 10 2 2 2 3 5 6 3 0 3 7 3 8 11 14 10 9 9 6
3 1 2 3 3 2 5 5 3 6 4 3 5 5 5 4 3 2 2 3 9 5 2 4 0 3 10 7 3 7 3 5 5 3 6 6 8 2 14 16 17 18 16 10 7
2 3 4 4 1 3 3 3 4 4 4 5 4 4 5 6 6 2 5 3 7 5 7 6 3 6 8 4 2 2 3 1 4 4 4 6 6 13 16 18 18 18 17 14 12
5 1 2 1 2 2 1 3 3 5 4 7 5 5 3 3 2 1 2 6 3 7 4 4 4 4 4 3 0 2 2 2 3 1 4 4 4 4 8 9 10 12 15 16 16
4 4 5 0 2 2 3 3 3 3 3 3 6 2 3 5 3 4 4 4 6 3 3 4 1 1 2 3 5 4 10 3 5 3 3 4 1 1 8 6 6 10 13 14 15
3 2 2 4 3 3 1 1 3 2 3 5 1 4 2 2 6 7 4 2 2 2 3 2 5 3 2 2 2 3 5 3 2 3 0 2 3 7 8 11 10 7 7 10 13
Wind_Direction
343 342 338 339 332 329 329 330 328 328 328 324 327 324 324 324 312 160 247 220 188 151 145 116 201 201 144 243 175 128 58 278 236 184 247 167 189 162 43 122 81 108 148 162 130
342 339 336 332 331 328 324 327 326 325 323 325 324 320 323 332 317 255 245 201 200 147 123 158 118 155 2 312 259 126 133 223 216 207 226 190 181 188 153 119 31 57 77 124 132
339 336 332 329 327 326 323 321 323 321 320 324 319 321 321 325 312 247 260 194 192 158 87 125 112 78 21 315 222 201 215 209 243 225 231 190 216 213 168 206 189 175 151 143 146
335 331 329 325 323 322 322 318 317 317 319 320 319 321 316 279 186 48 331 187 178 156 105 89 59 78 320 310 244 269 258 228 284 208 250 183 177 212 178 233 155 163 159 149 159
335 330 326 322 320 319 319 317 314 314 313 316 317 322 310 33 254 329 62 137 122 126 138 139 157 160 301 277 306 201 265 245 205 203 221 158 208 203 228 25 124 137 159 163 173
335 330 325 320 318 317 317 315 311 307 307 305 313 317 239 241 297 6 116 123 134 117 151 177 207 196 253 270 242 288 299 286 216 211 210 189 244 144 207 134 139 156 179 177 176
334 330 325 318 314 314 313 309 307 305 297 297 305 297 65 234 81 60 127 165 159 159 154 216 212 119 357 313 310 317 329 331 340 227 250 140 254 227 168 152 159 177 183 198 191
334 331 324 317 311 308 307 303 303 302 292 277 282 270 244 256 334 255 162 151 175 211 193 221 189 202 167 296 349 354 42 5 298 153 273 99 271 209 166 160 179 190 192 193 208
333 330 324 315 307 301 300 297 297 291 223 196 174 81 267 318 254 210 155 171 138 193 258 264 93 149 26 45 1 6 315 307 320 198 136 187 267 180 164 162 189 199 206 204 203
333 330 326 315 301 294 290 281 317 55 176 214 259 358 268 247 214 161 167 120 102 131 94 120 52 80 45 65 263 306 324 291 260 270 211 236 257 200 193 185 209 213 203 204 205
332 330 327 315 292 274 317 105 51 351 266 191 199 237 301 297 172 180 132 94 46 45 59 17 48 246 250 198 227 268 261 261 285 263 229 245 256 206 202 217 212 213 198 199 227
333 331 329 315 268 214 114 175 196 183 305 219 254 290 277 321 326 131 130 104 104 182 79 14 273 250 243 231 227 261 278 286 289 30 169 324 281 230 192 212 191 199 207 218 191
334 332 334 304 139 117 226 229 100 33 119 287 181 212 219 150 199 212 127 127 135 130 184 175 239 342 220 281 270 248 211 274 234 353 51 321 297 352 268 146 160 189 206 235 195
335 331 328 165 127 178 235 207 247 243 56 263 252 267 148 172 215 179 159 131 63 194 171 233 258 228 226 225 164 297 197 257 259 69 281 23 288 331 316 267 202 197 196 212 189
334 330 256 177 349 187 353 321 161 68 73 142 193 358 239 144 150 194 179 68 173 191 119 249 242 232 253 234 169 238 26 332 110 135 24 1 61 272 25 289 256 223 203 207 197
331 307 177 187 243 247 321 359 75 38 64 166 124 149 138 68 64 107 115 78 149 170 240 239 242 203 222 276 180 265 11 39 40 81 16 304 95 289 233 225 261 218 214 204 199
321 231 174 172 204 349 290 52 44 106 345 174 171 146 114 123 116 129 148 182 180 117 322 313 252 253 168 296 254 106 67 343 353 9 224 319 35 243 245 241 234 262 214 209 193
350 149 227 241 324 349 83 50 115 232 251 307 107 90 154 158 211 160 126 213 181 96 40 252 330 176 164 185 195 184 157 151 228 228 279 331 263 279 218 266 295 297 249 204 203
133 192 257 247 199 310 76 69 224 214 267 341 75 87 237 248 179 122 181 198 202 167 182 188 270 300 207 180 144 188 129 168 107 28 33 266 293 307 18 355 4 47 236 213 202
203 157 259 104 149 72 76 241 246 207 309 24 163 120 168 262 162 145 187 176 262 188 158 223 298 254 346 107 60 186 159 72 13 146 291 299 290 250 344 330 338 320 241 241 205
98 71 325 104 138 54 149 240 271 260 209 170 208 127 164 136 170 149 222 268 33 313 164 152 127 265 12 306 259 51 14 46 114 118 167 241 275 247 307 324 321 308 315 321 279
68 63 327 118 58 20 176 211 275 318 2 245 99 74 96 63 64 102 146 5 343 200 133 205 151 247 243 247 228 94 98 122 115 221 55 143 270 54 12 1 357 4 341 311 298
66 120 338 88 125 302 290 287 277 337 18 33 54 45 45 65 83 67 19 332 8 46 34 186 306 355 343 358 24 71 359 91 103 83 193 140 263 44 18 10 9 354 352 349 316
72 76 341 50 65 128 355 312 318 4 38 54 57 64 68 38 19 62 2 336 348 8 34 83 120 171 193 197 164 104 325 131 129 124 184 222 292 348 354 354 358 356 354 356 354
20 53 180 282 334 22 77 314 345 9 22 34 37 48 109 97 53 59 320 321 348 345 18 90 193 194 207 227 225 173 341 270 200 81 158 240 153 332 328 330 345 348 349 358 1
63 30 355 338 304 126 355 16 11 318 33 16 97 50 69 126 169 228 189 201 245 338 49 358 220 64 5 27 8 88 11 49 35 15 48 10 59 317 308 297 330 357 353 354 355
340 348 104 310 3 93 259 338 343 277 60 70 168 133 99 207 217 228 200 143 206 228 221 108 124 81 264 339 48 29 1 50 89 34 342 54 283 327 322 336 333 326 355 353 341